Location: Doux
(49.5045°N, 4.4321°E)
Time: 04:11:22
(UTC+00:00)

Cosmos 1190 Rocket - Pass Details

Date: 23 May 2024
Orbit: 754 x 778 km, 74.1° (Epoch: 21 June)

Event Time Altitude Azimuth Distance (km) Brightness Sun altitude
Exits shadow 00:51:14 31° 215° (SW) 1,321 4.7 -18.0°
Maximum altitude 00:53:46 74° 295° (WNW) 809 4.1 -17.9°
Drops below altitude 10° 00:59:05 10° 21° (NNE) 2,338 7.8 -17.6°
Sets 01:01:30 0° 23° (NNE) 3,271 9.0 -17.5°
